Flag for U.S.A. Weather past 2 weeks in Pontiac, Michigan, U.S.A.

Now
72 °F

Mostly cloudy.


Feels Like: 77 °F
Forecast: 57 / 77 °F
Wind: 12 mph from Southeast

Location: Oakland County International Airport

Current Time: Aug 29, 2014 at 5:05:05 PM

Latest Report: Aug 29, 2014 at 2:53 PM


Visibility: 10 mi

Pressure: 30.08 "Hg

Humidity: 52%

Dew point: 53 °F

Location of PontiacLocation

Historic Weather in Pontiac — Graph

°F

Pontiac temperature yesterday

Maximum temperature yesterday: 72 °F (at 5:53 PM)
Minimum temperature yesterday: 57 °F (at 5:53 AM)
Average temperature yesterday: 64 °F

Past Weeks' High & Low Weather Summary

 TemperatureHumidityPressure
High87 °F (Aug 26, 2:53 PM)94% (Aug 20, 12:53 AM)30.17 "Hg (Aug 20, 12:53 AM)
Low49 °F (Aug 15, 5:53 AM)38% (Aug 14, 5:53 PM)29.73 "Hg (Aug 19, 4:53 PM)
Average69 °F72%29.99 "Hg
* Reported Aug 14 2:53 PM — Aug 29 2:53 PM, Pontiac, Weather by CustomWeather, © 2014

Note: Actual official high and low records may vary slightly from our data, if they occured in-between our weather recording intervals... More about our weather records

Advertising

Pontiac weather history for previous 24 hours

 ConditionsComfort  
Time TempWeatherWind HumidityBarometerVisibility
2:53 PM
Aug 29
72 °FMostly cloudy.12 mph52%30.08 "Hg10 mi
1:53 PM73 °FPartly sunny.13 mph51%30.09 "Hg10 mi
12:53 PM71 °FPartly sunny.10 mph57%30.11 "Hg10 mi
11:53 AM69 °FMostly cloudy.8 mph59%30.12 "Hg10 mi
10:53 AM67 °FPartly sunny.17 mph63%30.12 "Hg10 mi
9:53 AM67 °FPartly sunny.8 mph66%30.13 "Hg10 mi
8:53 AM64 °FBroken clouds.7 mph70%30.13 "Hg10 mi
7:53 AM62 °FPartly cloudy.6 mph78%30.12 "Hg10 mi
6:53 AM59 °FPartly cloudy.7 mph84%30.11 "Hg10 mi
5:53 AM59 °FPassing clouds.6 mph81%30.11 "Hg10 mi
4:53 AM58 °FClear.5 mph81%30.11 "Hg10 mi
3:53 AM59 °FClear.3 mph78%30.11 "Hg10 mi
2:53 AM60 °FClear.5 mph72%30.12 "Hg10 mi
1:53 AM60 °FClear.3 mph67%30.13 "Hg10 mi
12:53 AM59 °FClear.3 mph67%30.15 "Hg10 mi
11:53 PM
Aug 28
61 °FPassing clouds.6 mph60%30.14 "Hg10 mi
10:53 PM61 °FPassing clouds.7 mph67%30.14 "Hg10 mi
9:53 PM63 °FPassing clouds.6 mph70%30.14 "Hg10 mi
8:53 PM62 °FPartly sunny.3 mph73%30.12 "Hg10 mi
7:53 PM69 °FPartly sunny.No wind47%30.10 "Hg10 mi
6:53 PM70 °FPartly sunny.No wind49%30.10 "Hg10 mi
5:53 PM72 °FPartly sunny.No wind44%30.10 "Hg10 mi
Weather by CustomWeather, © 2014

See weather overviewHow to use our weather pages